Location: Cardiff
(53.7833°N, 113.6000°W)
Time: 20:39:29
(UTC+00:00)

Oscar 19 - Pass Details

Date: 12 December 2023
Orbit: 771 x 789 km, 98.9° (Epoch: 04 March)

Event Time Altitude Azimuth Distance (km) Brightness Sun altitude
Rises 01:08:48 0° 227° (SW) 3,240 15.1 -15.7°
Reaches altitude 10° 01:13:27 10° 267° (W) 2,324 14.3 -16.4°
Maximum altitude 01:14:27 11° 278° (W) 2,291 14.1 -16.5°
Drops below altitude 10° 01:15:27 10° 289° (WNW) 2,329 13.9 -16.6°
Sets 01:20:09 0° 329° (NNW) 3,270 14.1 -17.3°
